Year,Month,Day,Hour,Minute,Value (Times are PST for temperature in C)
2006,07,22,00,00,22.80
2006,07,22,00,01,22.80
2006,07,22,00,02,22.80
2006,07,22,00,03,22.80
2006,07,22,00,04,22.70
2006,07,22,00,05,22.70
2006,07,22,00,06,22.70
2006,07,22,00,07,22.70
2006,07,22,00,08,22.60
2006,07,22,00,09,22.60
2006,07,22,00,10,22.60
2006,07,22,00,11,22.50
2006,07,22,00,12,22.50
2006,07,22,00,13,22.50
2006,07,22,00,14,22.50
2006,07,22,00,15,22.40
2006,07,22,00,16,22.40
2006,07,22,00,17,22.40
2006,07,22,00,18,22.30
2006,07,22,00,19,22.30
2006,07,22,00,20,22.30
2006,07,22,00,21,22.30
2006,07,22,00,22,22.30
2006,07,22,00,23,22.20
2006,07,22,00,24,22.20
2006,07,22,00,25,22.20
2006,07,22,00,26,22.20
2006,07,22,00,27,22.20
2006,07,22,00,28,22.20
2006,07,22,00,29,22.20
2006,07,22,00,30,22.20
2006,07,22,00,31,22.20
2006,07,22,00,32,22.20
2006,07,22,00,33,22.20
2006,07,22,00,34,22.20
2006,07,22,00,35,22.20
2006,07,22,00,36,22.20
2006,07,22,00,37,22.20
2006,07,22,00,38,22.20
2006,07,22,00,39,22.20
2006,07,22,00,40,22.20
2006,07,22,00,41,22.20
2006,07,22,00,42,22.20
2006,07,22,00,43,22.20
2006,07,22,00,44,22.20
2006,07,22,00,45,22.20
2006,07,22,00,46,22.20
2006,07,22,00,47,22.20
2006,07,22,00,48,22.10
2006,07,22,00,49,22.10
2006,07,22,00,50,22.10
2006,07,22,00,51,22.10
2006,07,22,00,52,22.10
2006,07,22,00,53,22.10
2006,07,22,00,54,22.10
2006,07,22,00,55,22.10
2006,07,22,00,56,22.10
2006,07,22,00,57,22.10
2006,07,22,00,58,22.10
2006,07,22,00,59,22.10
2006,07,22,01,00,22.10
2006,07,22,01,01,22.10
2006,07,22,01,02,22.10
2006,07,22,01,03,22.10
2006,07,22,01,04,22.10
2006,07,22,01,05,22.10
2006,07,22,01,06,22.10
2006,07,22,01,07,22.10
2006,07,22,01,08,22.10
2006,07,22,01,09,22.10
2006,07,22,01,10,22.10
2006,07,22,01,11,22.00
2006,07,22,01,12,22.00
2006,07,22,01,13,22.00
2006,07,22,01,14,22.00
2006,07,22,01,15,22.00
2006,07,22,01,16,22.00
2006,07,22,01,17,22.00
2006,07,22,01,18,22.00
2006,07,22,01,19,21.90
2006,07,22,01,20,21.90
2006,07,22,01,21,21.90
2006,07,22,01,22,21.90
2006,07,22,01,23,21.80
2006,07,22,01,24,21.80
2006,07,22,01,25,21.80
2006,07,22,01,26,21.80
2006,07,22,01,27,21.80
2006,07,22,01,28,21.80
2006,07,22,01,29,21.80
2006,07,22,01,30,21.90
2006,07,22,01,31,21.90
2006,07,22,01,32,21.90
2006,07,22,01,33,21.90
2006,07,22,01,34,21.90
2006,07,22,01,35,21.90
2006,07,22,01,36,21.90
2006,07,22,01,37,21.90
2006,07,22,01,38,21.80
2006,07,22,01,39,21.80
2006,07,22,01,40,21.80
2006,07,22,01,41,21.80
2006,07,22,01,42,21.80
2006,07,22,01,43,21.80
2006,07,22,01,44,21.80
2006,07,22,01,45,21.70
2006,07,22,01,46,21.70
2006,07,22,01,47,21.70
2006,07,22,01,48,21.70
2006,07,22,01,49,21.60
2006,07,22,01,50,21.60
2006,07,22,01,51,21.60
2006,07,22,01,52,21.60
2006,07,22,01,53,21.60
2006,07,22,01,54,21.60
2006,07,22,01,55,21.60
2006,07,22,01,56,21.60
2006,07,22,01,57,21.60
2006,07,22,01,58,21.60
2006,07,22,01,59,21.60
2006,07,22,02,00,21.60
2006,07,22,02,01,21.60
2006,07,22,02,02,21.60
2006,07,22,02,03,21.50
2006,07,22,02,04,21.40
2006,07,22,02,05,21.40
2006,07,22,02,06,21.30
2006,07,22,02,07,21.30
2006,07,22,02,08,21.30
2006,07,22,02,09,21.20
2006,07,22,02,10,21.20
2006,07,22,02,11,21.20
2006,07,22,02,12,21.20
2006,07,22,02,13,21.10
2006,07,22,02,14,21.10
2006,07,22,02,15,21.10
2006,07,22,02,16,21.10
2006,07,22,02,17,21.10
2006,07,22,02,18,21.10
2006,07,22,02,19,21.10
2006,07,22,02,20,21.10
2006,07,22,02,21,21.10
2006,07,22,02,22,21.10
2006,07,22,02,23,21.20
2006,07,22,02,24,21.20
2006,07,22,02,25,21.20
2006,07,22,02,26,21.20
2006,07,22,02,27,21.20
2006,07,22,02,28,21.20
2006,07,22,02,29,21.20
2006,07,22,02,30,21.20
2006,07,22,02,31,21.20
2006,07,22,02,32,21.30
2006,07,22,02,33,21.30
2006,07,22,02,34,21.30
2006,07,22,02,35,21.30
2006,07,22,02,36,21.30
2006,07,22,02,37,21.30
2006,07,22,02,38,21.30
2006,07,22,02,39,21.30
2006,07,22,02,40,21.30
2006,07,22,02,41,21.30
2006,07,22,02,42,21.30
2006,07,22,02,43,21.30
2006,07,22,02,44,21.30
2006,07,22,02,45,21.30
2006,07,22,02,46,21.30
2006,07,22,02,47,21.30
2006,07,22,02,48,21.30
2006,07,22,02,49,21.30
2006,07,22,02,50,21.30
2006,07,22,02,51,21.30
2006,07,22,02,52,21.30
2006,07,22,02,53,21.30
2006,07,22,02,54,21.30
2006,07,22,02,55,21.30
2006,07,22,02,56,21.30
2006,07,22,02,57,21.30
2006,07,22,02,58,21.30
2006,07,22,02,59,21.30
2006,07,22,03,00,21.30
2006,07,22,03,01,21.30
2006,07,22,03,02,21.30
2006,07,22,03,03,21.30
2006,07,22,03,04,21.30
2006,07,22,03,05,21.30
2006,07,22,03,06,21.30
2006,07,22,03,07,21.30
2006,07,22,03,08,21.30
2006,07,22,03,09,21.30
2006,07,22,03,10,21.20
2006,07,22,03,11,21.20
2006,07,22,03,12,21.20
2006,07,22,03,13,21.20
2006,07,22,03,14,21.20
2006,07,22,03,15,21.20
2006,07,22,03,16,21.10
2006,07,22,03,17,21.10
2006,07,22,03,18,21.10
2006,07,22,03,19,21.10
2006,07,22,03,20,21.10
2006,07,22,03,21,21.10
2006,07,22,03,22,21.10
2006,07,22,03,23,21.10
2006,07,22,03,24,21.20
2006,07,22,03,25,21.20
2006,07,22,03,26,21.20
2006,07,22,03,27,21.20
2006,07,22,03,28,21.30
2006,07,22,03,29,21.30
2006,07,22,03,30,21.30
2006,07,22,03,31,21.30
2006,07,22,03,32,21.40
2006,07,22,03,33,21.40
2006,07,22,03,34,21.50
2006,07,22,03,35,21.60
2006,07,22,03,36,21.60
2006,07,22,03,37,21.60
2006,07,22,03,38,21.70
2006,07,22,03,39,21.80
2006,07,22,03,40,21.80
2006,07,22,03,41,21.80
2006,07,22,03,42,21.90
2006,07,22,03,43,22.00
2006,07,22,03,44,22.00
2006,07,22,03,45,22.00
2006,07,22,03,46,22.00
2006,07,22,03,47,22.10
2006,07,22,03,48,22.10
2006,07,22,03,49,22.10
2006,07,22,03,50,22.10
2006,07,22,03,51,22.10
2006,07,22,03,52,22.10
2006,07,22,03,53,22.10
2006,07,22,03,54,22.10
2006,07,22,03,55,22.10
2006,07,22,03,56,22.10
2006,07,22,03,57,22.10
2006,07,22,03,58,22.10
2006,07,22,03,59,22.10
2006,07,22,04,00,22.00
2006,07,22,04,01,22.00
2006,07,22,04,02,22.00
2006,07,22,04,03,22.00
2006,07,22,04,04,22.00
2006,07,22,04,05,22.00
2006,07,22,04,06,22.00
2006,07,22,04,07,21.90
2006,07,22,04,08,21.90
2006,07,22,04,09,21.90
2006,07,22,04,10,21.90
2006,07,22,04,11,21.90
2006,07,22,04,12,21.90
2006,07,22,04,13,21.90
2006,07,22,04,14,21.90
2006,07,22,04,15,21.90
2006,07,22,04,16,21.80
2006,07,22,04,17,21.80
2006,07,22,04,18,21.80
2006,07,22,04,19,21.70
2006,07,22,04,20,21.70
2006,07,22,04,21,21.60
2006,07,22,04,22,21.60
2006,07,22,04,23,21.60
2006,07,22,04,24,21.60
2006,07,22,04,25,21.60
2006,07,22,04,26,21.50
2006,07,22,04,27,21.40
2006,07,22,04,28,21.40
2006,07,22,04,29,21.30
2006,07,22,04,30,21.30
2006,07,22,04,31,21.30
2006,07,22,04,32,21.30
2006,07,22,04,33,21.30
2006,07,22,04,34,21.30
2006,07,22,04,35,21.20
2006,07,22,04,36,21.20
2006,07,22,04,37,21.20
2006,07,22,04,38,21.20
2006,07,22,04,39,21.20
2006,07,22,04,40,21.20
2006,07,22,04,41,21.10
2006,07,22,04,42,21.00
2006,07,22,04,43,20.90
2006,07,22,04,44,20.80
2006,07,22,04,45,20.70
2006,07,22,04,46,20.60
2006,07,22,04,47,20.50
2006,07,22,04,48,20.50
2006,07,22,04,49,20.30
2006,07,22,04,50,20.20
2006,07,22,04,51,20.10
2006,07,22,04,52,20.00
2006,07,22,04,53,19.90
2006,07,22,04,54,19.90
2006,07,22,04,55,19.80
2006,07,22,04,56,19.80
2006,07,22,04,57,19.70
2006,07,22,04,58,19.70
2006,07,22,04,59,19.60
2006,07,22,05,00,19.60
2006,07,22,05,01,19.60
2006,07,22,05,02,19.60
2006,07,22,05,03,19.50
2006,07,22,05,04,19.50
2006,07,22,05,05,19.50
2006,07,22,05,06,19.50
2006,07,22,05,07,19.40
2006,07,22,05,08,19.40
2006,07,22,05,09,19.40
2006,07,22,05,10,19.30
2006,07,22,05,11,19.30
2006,07,22,05,12,19.30
2006,07,22,05,13,19.30
2006,07,22,05,14,19.30
2006,07,22,05,15,19.20
2006,07,22,05,16,19.20
2006,07,22,05,17,19.20
2006,07,22,05,18,19.20
2006,07,22,05,19,19.10
2006,07,22,05,20,19.10
2006,07,22,05,21,19.10
2006,07,22,05,22,19.10
2006,07,22,05,23,19.10
2006,07,22,05,24,19.10
2006,07,22,05,25,19.00
2006,07,22,05,26,18.90
2006,07,22,05,27,18.90
2006,07,22,05,28,18.90
2006,07,22,05,29,18.90
2006,07,22,05,30,18.80
2006,07,22,05,31,18.70
2006,07,22,05,32,18.70
2006,07,22,05,33,18.60
2006,07,22,05,34,18.60
2006,07,22,05,35,18.50
2006,07,22,05,36,18.50
2006,07,22,05,37,18.50
2006,07,22,05,38,18.50
2006,07,22,05,39,18.40
2006,07,22,05,40,18.40
2006,07,22,05,41,18.30
2006,07,22,05,42,18.30
2006,07,22,05,43,18.30
2006,07,22,05,44,18.20
2006,07,22,05,45,18.20
2006,07,22,05,46,18.20
2006,07,22,05,47,18.20
2006,07,22,05,48,18.20
2006,07,22,05,49,18.20
2006,07,22,05,50,18.20
2006,07,22,05,51,18.20
2006,07,22,05,52,18.20
2006,07,22,05,53,18.20
2006,07,22,05,54,18.20
2006,07,22,05,55,18.20
2006,07,22,05,56,18.20
2006,07,22,05,57,18.20
2006,07,22,05,58,18.20
2006,07,22,05,59,18.20
2006,07,22,06,00,18.20
2006,07,22,06,01,18.20
2006,07,22,06,02,18.20
2006,07,22,06,03,18.30
2006,07,22,06,04,18.30
2006,07,22,06,05,18.30
2006,07,22,06,06,18.30
2006,07,22,06,07,18.30
2006,07,22,06,08,18.30
2006,07,22,06,09,18.30
2006,07,22,06,10,18.30
2006,07,22,06,11,18.30
2006,07,22,06,12,18.30
2006,07,22,06,13,18.30
2006,07,22,06,14,18.30
2006,07,22,06,15,18.30
2006,07,22,06,16,18.40
2006,07,22,06,17,18.40
2006,07,22,06,18,18.40
2006,07,22,06,19,18.40
2006,07,22,06,20,18.40
2006,07,22,06,21,18.50
2006,07,22,06,22,18.50
2006,07,22,06,23,18.50
2006,07,22,06,24,18.50
2006,07,22,06,25,18.60
2006,07,22,06,26,18.60
2006,07,22,06,27,18.60
2006,07,22,06,28,18.60
2006,07,22,06,29,18.70
2006,07,22,06,30,18.70
2006,07,22,06,31,18.70
2006,07,22,06,32,18.70
2006,07,22,06,33,18.80
2006,07,22,06,34,18.80
2006,07,22,06,35,18.80
2006,07,22,06,36,18.80
2006,07,22,06,37,18.90
2006,07,22,06,38,18.90
2006,07,22,06,39,18.90
2006,07,22,06,40,18.90
2006,07,22,06,41,18.90
2006,07,22,06,42,18.90
2006,07,22,06,43,18.90
2006,07,22,06,44,18.90
2006,07,22,06,45,18.90
2006,07,22,06,46,19.00
2006,07,22,06,47,19.10
2006,07,22,06,48,19.10
2006,07,22,06,49,19.10
2006,07,22,06,50,19.10
2006,07,22,06,51,19.10
2006,07,22,06,52,19.10
2006,07,22,06,53,19.20
2006,07,22,06,54,19.20
2006,07,22,06,55,19.30
2006,07,22,06,56,19.30
2006,07,22,06,57,19.30
2006,07,22,06,58,19.40
2006,07,22,06,59,19.40
2006,07,22,07,00,19.40
2006,07,22,07,01,19.50
2006,07,22,07,02,19.50
2006,07,22,07,03,19.60
2006,07,22,07,04,19.60
2006,07,22,07,05,19.70
2006,07,22,07,06,19.80
2006,07,22,07,07,19.80
2006,07,22,07,08,19.90
2006,07,22,07,09,19.90
2006,07,22,07,10,19.90
2006,07,22,07,11,20.00
2006,07,22,07,12,20.10
2006,07,22,07,13,20.10
2006,07,22,07,14,20.10
2006,07,22,07,15,20.20
2006,07,22,07,16,20.20
2006,07,22,07,17,20.20
2006,07,22,07,18,20.20
2006,07,22,07,19,20.20
2006,07,22,07,20,20.20
2006,07,22,07,21,20.30
2006,07,22,07,22,20.30
2006,07,22,07,23,20.30
2006,07,22,07,24,20.40
2006,07,22,07,25,20.40
2006,07,22,07,26,20.40
2006,07,22,07,27,20.40
2006,07,22,07,28,20.40
2006,07,22,07,29,20.40
2006,07,22,07,30,20.40
2006,07,22,07,31,20.40
2006,07,22,07,32,20.50
2006,07,22,07,33,20.50
2006,07,22,07,34,20.50
2006,07,22,07,35,20.50
2006,07,22,07,36,20.50
2006,07,22,07,37,20.50
2006,07,22,07,38,20.50
2006,07,22,07,39,20.50
2006,07,22,07,40,20.50
2006,07,22,07,41,20.50
2006,07,22,07,42,20.60
2006,07,22,07,43,20.60
2006,07,22,07,44,20.60
2006,07,22,07,45,20.60
2006,07,22,07,46,20.70
2006,07,22,07,47,20.70
2006,07,22,07,48,20.70
2006,07,22,07,49,20.80
2006,07,22,07,50,20.80
2006,07,22,07,51,20.80
2006,07,22,07,52,20.90
2006,07,22,07,53,20.90
2006,07,22,07,54,21.00
2006,07,22,07,55,21.00
2006,07,22,07,56,21.00
2006,07,22,07,57,21.10
2006,07,22,07,58,21.10
2006,07,22,07,59,21.20
2006,07,22,08,00,21.20
2006,07,22,08,01,21.30
2006,07,22,08,02,21.30
2006,07,22,08,03,21.30
2006,07,22,08,04,21.40
2006,07,22,08,05,21.40
2006,07,22,08,06,21.60
2006,07,22,08,07,21.60
2006,07,22,08,08,21.60
2006,07,22,08,09,21.60
2006,07,22,08,10,21.60
2006,07,22,08,11,21.70
2006,07,22,08,12,21.70
2006,07,22,08,13,21.70
2006,07,22,08,14,21.80
2006,07,22,08,15,21.80
2006,07,22,08,16,21.90
2006,07,22,08,17,21.90
2006,07,22,08,18,22.00
2006,07,22,08,19,22.00
2006,07,22,08,20,22.00
2006,07,22,08,21,22.10
2006,07,22,08,22,22.10
2006,07,22,08,23,22.10
2006,07,22,08,24,22.10
2006,07,22,08,25,22.10
2006,07,22,08,26,22.10
2006,07,22,08,27,22.10
2006,07,22,08,28,22.10
2006,07,22,08,29,22.20
2006,07,22,08,30,22.20
2006,07,22,08,31,22.20
2006,07,22,08,32,22.20
2006,07,22,08,33,22.20
2006,07,22,08,34,22.20
2006,07,22,08,35,22.20
2006,07,22,08,36,22.20
2006,07,22,08,37,22.30
2006,07,22,08,38,22.30
2006,07,22,08,39,22.30
2006,07,22,08,40,22.40
2006,07,22,08,41,22.40
2006,07,22,08,42,22.40
2006,07,22,08,43,22.50
2006,07,22,08,44,22.50
2006,07,22,08,45,22.60
2006,07,22,08,46,22.60
2006,07,22,08,47,22.70
2006,07,22,08,48,22.70
2006,07,22,08,49,22.80
2006,07,22,08,50,22.80
2006,07,22,08,51,22.90
2006,07,22,08,52,22.90
2006,07,22,08,53,23.00
2006,07,22,08,54,23.20
2006,07,22,08,55,23.30
2006,07,22,08,56,23.30
2006,07,22,08,57,23.40
2006,07,22,08,58,23.50
2006,07,22,08,59,23.60
2006,07,22,09,00,23.50
2006,07,22,09,01,23.10
2006,07,22,09,02,22.90
2006,07,22,09,03,22.70
2006,07,22,09,04,22.30
2006,07,22,09,05,22.00
2006,07,22,09,06,21.70
2006,07,22,09,07,21.40
2006,07,22,09,08,21.00
2006,07,22,09,09,20.60
2006,07,22,09,10,20.40
2006,07,22,09,11,20.30
2006,07,22,09,12,20.20
2006,07,22,09,13,20.20
2006,07,22,09,14,20.10
2006,07,22,09,15,19.90
2006,07,22,09,16,19.90
2006,07,22,09,17,19.90
2006,07,22,09,18,19.90
2006,07,22,09,19,19.90
2006,07,22,09,20,19.80
2006,07,22,09,21,19.80
2006,07,22,09,22,19.90
2006,07,22,09,23,19.80
2006,07,22,09,24,19.80
2006,07,22,09,25,19.80
2006,07,22,09,26,19.80
2006,07,22,09,27,19.80
2006,07,22,09,28,19.80
2006,07,22,09,29,19.90
2006,07,22,09,30,20.10
2006,07,22,09,31,20.10
2006,07,22,09,32,20.10
2006,07,22,09,33,20.00
2006,07,22,09,34,19.90
2006,07,22,09,35,19.90
2006,07,22,09,36,19.90
2006,07,22,09,37,19.90
2006,07,22,09,38,19.90
2006,07,22,09,39,20.00
2006,07,22,09,40,20.10
2006,07,22,09,41,20.10
2006,07,22,09,42,20.20
2006,07,22,09,43,20.20
2006,07,22,09,44,20.40
2006,07,22,09,45,20.50
2006,07,22,09,46,20.60
2006,07,22,09,47,20.70
2006,07,22,09,48,20.80
2006,07,22,09,49,20.90
2006,07,22,09,50,21.00
2006,07,22,09,51,21.10
2006,07,22,09,52,21.20
2006,07,22,09,53,21.30
2006,07,22,09,54,21.40
2006,07,22,09,55,21.60
2006,07,22,09,56,21.70
2006,07,22,09,57,21.80
2006,07,22,09,58,22.00
2006,07,22,09,59,22.10
2006,07,22,10,00,22.30
2006,07,22,10,01,22.40
2006,07,22,10,02,22.60
2006,07,22,10,03,22.70
2006,07,22,10,04,22.90
2006,07,22,10,05,23.00
2006,07,22,10,06,23.10
2006,07,22,10,07,23.20
2006,07,22,10,08,23.30
2006,07,22,10,09,23.40
2006,07,22,10,10,23.50
2006,07,22,10,11,23.60
2006,07,22,10,12,23.70
2006,07,22,10,13,23.70
2006,07,22,10,14,23.80
2006,07,22,10,15,23.90
2006,07,22,10,16,24.00
2006,07,22,10,17,24.10
2006,07,22,10,18,24.10
2006,07,22,10,19,24.20
2006,07,22,10,20,24.30
2006,07,22,10,21,24.30
2006,07,22,10,22,24.30
2006,07,22,10,23,24.10
2006,07,22,10,24,23.90
2006,07,22,10,25,23.70
2006,07,22,10,26,23.70
2006,07,22,10,27,23.60
2006,07,22,10,28,23.70
2006,07,22,10,29,23.70
2006,07,22,10,30,23.70
2006,07,22,10,31,23.90
2006,07,22,10,32,24.10
2006,07,22,10,33,24.30
2006,07,22,10,34,24.50
2006,07,22,10,35,24.50
2006,07,22,10,36,24.60
2006,07,22,10,37,24.50
2006,07,22,10,38,24.40
2006,07,22,10,39,24.30
2006,07,22,10,40,24.10
2006,07,22,10,41,24.10
2006,07,22,10,42,24.30
2006,07,22,10,43,24.40
2006,07,22,10,44,24.60
2006,07,22,10,45,24.70
2006,07,22,10,46,24.70
2006,07,22,10,47,24.70
2006,07,22,10,48,24.70
2006,07,22,10,49,24.70
2006,07,22,10,50,24.60
2006,07,22,10,51,24.70
2006,07,22,10,52,24.70
2006,07,22,10,53,24.80
2006,07,22,10,54,25.10
2006,07,22,10,55,25.10
2006,07,22,10,56,25.00
2006,07,22,10,57,24.90
2006,07,22,10,58,24.80
2006,07,22,10,59,24.70
2006,07,22,11,00,24.60
2006,07,22,11,01,24.60
2006,07,22,11,02,24.40
2006,07,22,11,03,24.30
2006,07,22,11,04,24.40
2006,07,22,11,05,24.50
2006,07,22,11,06,24.70
2006,07,22,11,07,24.80
2006,07,22,11,08,24.80
2006,07,22,11,09,24.60
2006,07,22,11,10,24.50
2006,07,22,11,11,24.40
2006,07,22,11,12,24.30
2006,07,22,11,13,24.20
2006,07,22,11,14,24.10
2006,07,22,11,15,24.10
2006,07,22,11,16,24.10
2006,07,22,11,17,24.10
2006,07,22,11,18,24.10
2006,07,22,11,19,24.10
2006,07,22,11,20,24.10
2006,07,22,11,21,24.10
2006,07,22,11,22,24.10
2006,07,22,11,23,24.10
2006,07,22,11,24,24.10
2006,07,22,11,25,24.10
2006,07,22,11,26,24.10
2006,07,22,11,27,24.10
2006,07,22,11,28,24.10
2006,07,22,11,29,24.10
2006,07,22,11,30,24.10
2006,07,22,11,31,24.10
2006,07,22,11,32,24.10
2006,07,22,11,33,24.00
2006,07,22,11,34,23.90
2006,07,22,11,35,24.10
2006,07,22,11,36,24.10
2006,07,22,11,37,24.10
2006,07,22,11,38,24.10
2006,07,22,11,39,24.10
2006,07,22,11,40,24.20
2006,07,22,11,41,24.20
2006,07,22,11,42,24.40
2006,07,22,11,43,24.50
2006,07,22,11,44,24.60
2006,07,22,11,45,24.60
2006,07,22,11,46,24.60
2006,07,22,11,47,24.70
2006,07,22,11,48,24.80
2006,07,22,11,49,24.80
2006,07,22,11,50,24.80
2006,07,22,11,51,24.90
2006,07,22,11,52,24.90
2006,07,22,11,53,24.90
2006,07,22,11,54,24.90
2006,07,22,11,55,25.00
2006,07,22,11,56,25.10
2006,07,22,11,57,25.20
2006,07,22,11,58,25.30
2006,07,22,11,59,25.30
2006,07,22,12,00,25.30
2006,07,22,12,01,25.40
2006,07,22,12,02,25.40
2006,07,22,12,03,25.50
2006,07,22,12,04,25.50
2006,07,22,12,05,25.60
2006,07,22,12,06,25.60
2006,07,22,12,07,25.70
2006,07,22,12,08,25.70
2006,07,22,12,09,25.90
2006,07,22,12,10,26.10
2006,07,22,12,11,26.20
2006,07,22,12,12,26.20
2006,07,22,12,13,26.20
2006,07,22,12,14,26.60
2006,07,22,12,15,26.70
2006,07,22,12,16,26.80
2006,07,22,12,17,26.90
2006,07,22,12,18,27.00
2006,07,22,12,19,27.10
2006,07,22,12,20,27.30
2006,07,22,12,21,27.40
2006,07,22,12,22,27.40
2006,07,22,12,23,27.40
2006,07,22,12,24,27.50
2006,07,22,12,25,27.60
2006,07,22,12,26,27.60
2006,07,22,12,27,27.60
2006,07,22,12,28,27.70
2006,07,22,12,29,27.70
2006,07,22,12,30,27.80
2006,07,22,12,31,27.90
2006,07,22,12,32,28.00
2006,07,22,12,33,28.00
2006,07,22,12,34,28.00
2006,07,22,12,35,28.00
2006,07,22,12,36,28.10
2006,07,22,12,37,28.10
2006,07,22,12,38,28.10
2006,07,22,12,39,28.10
2006,07,22,12,40,28.20
2006,07,22,12,41,28.20
2006,07,22,12,42,28.20
2006,07,22,12,43,28.20
2006,07,22,12,44,28.20
2006,07,22,12,45,28.20
2006,07,22,12,46,28.10
2006,07,22,12,47,28.10
2006,07,22,12,48,28.00
2006,07,22,12,49,28.00
2006,07,22,12,50,28.10
2006,07,22,12,51,28.10
2006,07,22,12,52,28.10
2006,07,22,12,53,28.10
2006,07,22,12,54,28.10
2006,07,22,12,55,28.20
2006,07,22,12,56,28.20
2006,07,22,12,57,28.20
2006,07,22,12,58,28.20
2006,07,22,12,59,28.30
2006,07,22,13,00,28.30
2006,07,22,13,01,28.30
2006,07,22,13,02,28.30
2006,07,22,13,03,28.30
2006,07,22,13,04,28.40
2006,07,22,13,05,28.40
2006,07,22,13,06,28.50
2006,07,22,13,07,28.60
2006,07,22,13,08,28.60
2006,07,22,13,09,28.70
2006,07,22,13,10,28.70
2006,07,22,13,11,28.80
2006,07,22,13,12,28.80
2006,07,22,13,13,28.80
2006,07,22,13,14,28.90
2006,07,22,13,15,28.90
2006,07,22,13,16,28.90
2006,07,22,13,17,28.90
2006,07,22,13,18,28.90
2006,07,22,13,19,28.90
2006,07,22,13,20,28.90
2006,07,22,13,21,28.90
2006,07,22,13,22,28.90
2006,07,22,13,23,28.90
2006,07,22,13,24,28.90
2006,07,22,13,25,28.90
2006,07,22,13,26,28.90
2006,07,22,13,27,28.90
2006,07,22,13,28,28.90
2006,07,22,13,29,28.90
2006,07,22,13,30,28.90
2006,07,22,13,31,28.90
2006,07,22,13,32,28.90
2006,07,22,13,33,29.00
2006,07,22,13,34,29.10
2006,07,22,13,35,29.20
2006,07,22,13,36,29.10
2006,07,22,13,37,29.10
2006,07,22,13,38,29.10
2006,07,22,13,39,29.20
2006,07,22,13,40,29.20
2006,07,22,13,41,29.30
2006,07,22,13,42,29.30
2006,07,22,13,43,29.20
2006,07,22,13,44,29.20
2006,07,22,13,45,29.20
2006,07,22,13,46,29.20
2006,07,22,13,47,29.40
2006,07,22,13,48,29.50
2006,07,22,13,49,29.50
2006,07,22,13,50,29.60
2006,07,22,13,51,29.60
2006,07,22,13,52,29.70
2006,07,22,13,53,29.70
2006,07,22,13,54,29.80
2006,07,22,13,55,29.80
2006,07,22,13,56,30.00
2006,07,22,13,57,30.10
2006,07,22,13,58,30.20
2006,07,22,13,59,30.30
2006,07,22,14,00,30.30
2006,07,22,14,01,30.20
2006,07,22,14,02,30.00
2006,07,22,14,03,29.90
2006,07,22,14,04,29.80
2006,07,22,14,05,29.70
2006,07,22,14,06,29.70
2006,07,22,14,07,29.70
2006,07,22,14,08,29.70
2006,07,22,14,09,29.70
2006,07,22,14,10,29.70
2006,07,22,14,11,29.70
2006,07,22,14,12,29.60
2006,07,22,14,13,29.60
2006,07,22,14,14,29.70
2006,07,22,14,15,29.70
2006,07,22,14,16,29.80
2006,07,22,14,17,29.80
2006,07,22,14,18,29.80
2006,07,22,14,19,29.70
2006,07,22,14,20,29.60
2006,07,22,14,21,29.50
2006,07,22,14,22,29.50
2006,07,22,14,23,29.60
2006,07,22,14,24,29.60
2006,07,22,14,25,29.70
2006,07,22,14,26,29.70
2006,07,22,14,27,29.80
2006,07,22,14,28,29.80
2006,07,22,14,29,29.80
2006,07,22,14,30,29.90
2006,07,22,14,31,29.90
2006,07,22,14,32,29.90
2006,07,22,14,33,29.90
2006,07,22,14,34,29.90
2006,07,22,14,35,29.90
2006,07,22,14,36,30.10
2006,07,22,14,37,30.10
2006,07,22,14,38,30.10
2006,07,22,14,39,30.10
2006,07,22,14,40,30.20
2006,07,22,14,41,30.30
2006,07,22,14,42,30.40
2006,07,22,14,43,30.40
2006,07,22,14,44,30.40
2006,07,22,14,45,30.30
2006,07,22,14,46,30.30
2006,07,22,14,47,30.30
2006,07,22,14,48,30.30
2006,07,22,14,49,30.30
2006,07,22,14,50,30.30
2006,07,22,14,51,30.30
2006,07,22,14,52,30.30
2006,07,22,14,53,30.30
2006,07,22,14,54,30.30
2006,07,22,14,55,30.30
2006,07,22,14,56,30.30
2006,07,22,14,57,30.40
2006,07,22,14,58,30.50
2006,07,22,14,59,30.60
2006,07,22,15,00,30.60
2006,07,22,15,01,30.70
2006,07,22,15,02,30.70
2006,07,22,15,03,30.70
2006,07,22,15,04,30.70
2006,07,22,15,05,30.70
2006,07,22,15,06,30.80
2006,07,22,15,07,30.80
2006,07,22,15,08,30.70
2006,07,22,15,09,30.70
2006,07,22,15,10,30.70
2006,07,22,15,11,30.70
2006,07,22,15,12,30.70
2006,07,22,15,13,30.80
2006,07,22,15,14,30.80
2006,07,22,15,15,30.80
2006,07,22,15,16,30.80
2006,07,22,15,17,30.90
2006,07,22,15,18,30.90
2006,07,22,15,19,30.90
2006,07,22,15,20,30.90
2006,07,22,15,21,31.00
2006,07,22,15,22,31.00
2006,07,22,15,23,31.00
2006,07,22,15,24,31.00
2006,07,22,15,25,30.90
2006,07,22,15,26,30.90
2006,07,22,15,27,30.90
2006,07,22,15,28,31.00
2006,07,22,15,29,31.10
2006,07,22,15,30,31.10
2006,07,22,15,31,31.20
2006,07,22,15,32,31.10
2006,07,22,15,33,31.10
2006,07,22,15,34,31.10
2006,07,22,15,35,31.10
2006,07,22,15,36,31.10
2006,07,22,15,37,31.10
2006,07,22,15,38,31.10
2006,07,22,15,39,31.10
2006,07,22,15,40,31.10
2006,07,22,15,41,31.10
2006,07,22,15,42,31.10
2006,07,22,15,43,31.10
2006,07,22,15,44,31.10
2006,07,22,15,45,31.10
2006,07,22,15,46,31.00
2006,07,22,15,47,31.00
2006,07,22,15,48,30.90
2006,07,22,15,49,30.90
2006,07,22,15,50,30.90
2006,07,22,15,51,30.90
2006,07,22,15,52,30.80
2006,07,22,15,53,30.80
2006,07,22,15,54,30.80
2006,07,22,15,55,30.90
2006,07,22,15,56,30.90
2006,07,22,15,57,31.00
2006,07,22,15,58,31.00
2006,07,22,15,59,31.10
2006,07,22,16,00,31.10
2006,07,22,16,01,31.20
2006,07,22,16,02,31.20
2006,07,22,16,03,31.20
2006,07,22,16,04,31.20
2006,07,22,16,05,31.10
2006,07,22,16,06,31.10
2006,07,22,16,07,31.10
2006,07,22,16,08,31.20
2006,07,22,16,09,31.20
2006,07,22,16,10,31.30
2006,07,22,16,11,31.40
2006,07,22,16,12,31.40
2006,07,22,16,13,31.30
2006,07,22,16,14,31.20
2006,07,22,16,15,31.10
2006,07,22,16,16,31.10
2006,07,22,16,17,31.10
2006,07,22,16,18,31.20
2006,07,22,16,19,31.20
2006,07,22,16,20,31.20
2006,07,22,16,21,31.20
2006,07,22,16,22,31.10
2006,07,22,16,23,31.10
2006,07,22,16,24,31.10
2006,07,22,16,25,31.00
2006,07,22,16,26,30.90
2006,07,22,16,27,30.80
2006,07,22,16,28,30.70
2006,07,22,16,29,30.70
2006,07,22,16,30,30.70
2006,07,22,16,31,30.70
2006,07,22,16,32,30.70
2006,07,22,16,33,30.60
2006,07,22,16,34,30.60
2006,07,22,16,35,30.60
2006,07,22,16,36,30.60
2006,07,22,16,37,30.60
2006,07,22,16,38,30.60
2006,07,22,16,39,30.60
2006,07,22,16,40,30.60
2006,07,22,16,41,30.60
2006,07,22,16,42,30.60
2006,07,22,16,43,30.60
2006,07,22,16,44,30.60
2006,07,22,16,45,30.60
2006,07,22,16,46,30.60
2006,07,22,16,47,30.70
2006,07,22,16,48,30.80
2006,07,22,16,49,30.80
2006,07,22,16,50,30.90
2006,07,22,16,51,30.80
2006,07,22,16,52,30.80
2006,07,22,16,53,30.70
2006,07,22,16,54,30.70
2006,07,22,16,55,30.60
2006,07,22,16,56,30.60
2006,07,22,16,57,30.60
2006,07,22,16,58,30.50
2006,07,22,16,59,30.40
2006,07,22,17,00,30.40
2006,07,22,17,01,30.30
2006,07,22,17,02,30.20
2006,07,22,17,03,30.20
2006,07,22,17,04,30.20
2006,07,22,17,05,30.30
2006,07,22,17,06,30.30
2006,07,22,17,07,30.30
2006,07,22,17,08,30.30
2006,07,22,17,09,30.30
2006,07,22,17,10,30.40
2006,07,22,17,11,30.40
2006,07,22,17,12,30.40
2006,07,22,17,13,30.40
2006,07,22,17,14,30.40
2006,07,22,17,15,30.30
2006,07,22,17,16,30.30
2006,07,22,17,17,30.20
2006,07,22,17,18,30.20
2006,07,22,17,19,30.20